Weather History for PAFB - July, 2013

Change the Weather History Date:

Wednesday, July 24, 2013

  Actual Average Record
Temperature  
Mean Temperature 65 °F -  
Max Temperature 73 °F 67 °F 80 °F (2006)
Min Temperature 57 °F 52 °F 44 °F (2008)
Growing Degree Days 15 (Base 50)    
Moisture  
Dew Point 54 °F    
Average Humidity 67    
Maximum Humidity 84    
Minimum Humidity 50    
Precipitation  
Precipitation 0.05 in - - ()
Sea Level Pressure  
Sea Level Pressure 30.00 in    
Wind  
Wind Speed 5 mph (WSW)    
Max Wind Speed 14 mph    
Max Gust Speed -    
Visibility 12 miles    
Events Rain    
Averages and records for this station are not official NWS values.
T = Trace of Precipitation, MM = Missing Value Source: NWS Daily Summary

Daily Weather History Graph

Daily Weather History Graph

Search for Another Location

Airport or City:

Trip Planner

Search our weather history database for the weather conditions in past years. The results will help you decide how hot, cold, wet, or windy it might be!

Date:

Astronomy

Jul. 24, 2013 Rise Set
Actual Time 4:24 AM AKDT 11:27 PM AKDT
Civil Twilight 2:29 AM AKDT 1:24 AM AKDT
Nautical Twilight Sun does not rise Sun does not rise
Astronomical Twilight Sun does not rise Sun does not rise
Moon 10:48 PM AKDT (7/24) 8:31 AM AKDT (7/24)
Length of Visible Light 22h 55m
Length of Day
19h 03m
Waning Gibbous, 94% of the Moon is Illuminated
Jul 24
Waning Gibbous
Jul 29
Last Quarter
Aug 6
New
Aug 14
First Quarter
Aug 20
Full

Hourly Weather History & Observations

Time (AKDT) Temp. Dew Point Humidity Pressure Visibility Wind Dir Wind Speed Gust Speed Precip Events Conditions
12:56 AM 63.0 °F 54.0 °F 72% 30.02 in 10.0 mi Calm Calm - N/A   Clear
1:56 AM 59.0 °F 53.1 °F 81% 30.03 in 10.0 mi Calm Calm - N/A   Clear
2:56 AM 57.0 °F 52.0 °F 83% 30.03 in 10.0 mi East 4.6 mph - N/A   Clear
3:56 AM 57.9 °F 53.1 °F 84% 30.04 in 10.0 mi Calm Calm - N/A   Mostly Cloudy
4:56 AM 57.9 °F 52.0 °F 81% 30.04 in 10.0 mi ESE 3.5 mph - N/A   Overcast
5:56 AM 57.9 °F 52.0 °F 81% 30.04 in 10.0 mi Calm Calm - N/A   Overcast
6:30 AM 57.2 °F 51.8 °F 82% 30.03 in 10.0 mi Calm Calm - N/A   Mostly Cloudy
6:55 AM 59.0 °F 53.6 °F 82% 30.04 in 10.0 mi Calm Calm - N/A   Mostly Cloudy
7:55 AM 60.8 °F 53.6 °F 77% 30.04 in 10.0 mi Calm Calm - N/A   Mostly Cloudy
8:55 AM 64.4 °F 55.4 °F 73% 30.03 in 15.0 mi SW 6.9 mph - N/A   Mostly Cloudy
9:55 AM 66.2 °F 53.6 °F 64% 30.02 in 15.0 mi SW 10.4 mph - N/A   Mostly Cloudy
10:55 AM 71.6 °F 53.6 °F 53% 30.02 in 15.0 mi WSW 12.7 mph - N/A   Mostly Cloudy
11:55 AM 71.6 °F 53.6 °F 53% 30.01 in 15.0 mi West 13.8 mph - N/A   Mostly Cloudy
12:55 PM 69.8 °F 53.6 °F 56% 30.02 in 15.0 mi West 8.1 mph - N/A   Mostly Cloudy
1:55 PM 69.8 °F 51.8 °F 53% 30.01 in 15.0 mi West 11.5 mph - N/A   Mostly Cloudy
2:55 PM 69.8 °F 53.6 °F 56% 30.00 in 25.0 mi West 12.7 mph - N/A   Mostly Cloudy
3:55 PM 71.6 °F 53.6 °F 53% 29.99 in 25.0 mi SSW 12.7 mph - N/A   Mostly Cloudy
4:55 PM 73.4 °F 53.6 °F 50% 29.97 in 25.0 mi SW 8.1 mph - N/A   Mostly Cloudy
5:04 PM 73.4 °F 53.6 °F 50% 29.96 in 25.0 mi SW 11.5 mph - N/A Rain Light Rain Showers
5:49 PM 69.8 °F 60.8 °F 73% 29.97 in 25.0 mi WSW 10.4 mph - N/A   Mostly Cloudy
5:55 PM 69.8 °F 60.8 °F 73% 29.98 in 25.0 mi WSW 10.4 mph - N/A   Mostly Cloudy
6:55 PM 69.8 °F 57.2 °F 64% 29.96 in 25.0 mi West 10.4 mph - N/A   Mostly Cloudy
7:55 PM 69.8 °F 55.4 °F 60% 29.97 in 25.0 mi West 11.5 mph - N/A   Mostly Cloudy
8:55 PM 69.8 °F 55.4 °F 60% 29.97 in 25.0 mi West 11.5 mph - N/A   Mostly Cloudy
9:55 PM 68.0 °F 55.4 °F 64% 29.96 in 25.0 mi West 10.4 mph - N/A   Overcast
10:56 PM 66.9 °F 55.0 °F 66% 29.96 in 10.0 mi West 10.4 mph - N/A   Overcast
11:56 PM 66.9 °F 55.0 °F 66% 29.97 in 10.0 mi West 10.4 mph - N/A   Overcast